Location: Newark
(44.3681°N, 100.3364°W)
Time: 17:48:06
(UTC+00:00)

ISS - Visible Passes

Search period start: 24 January 2020 00:00
Search period end: 03 February 2020 00:00
Orbit: 415 x 423 km, 51.6° (Epoch: 25 January)

Date Brightness Start Highest point End Pass type
(mag) Time Alt. Az. Time Alt. Az. Time Alt. Az.
24 Jan -3.2 00:21:13 10° SW 00:24:28 46° SE 00:27:20 13° ENE visible
24 Jan -1.8 01:58:11 10° W 02:00:18 28° WNW 02:00:18 28° WNW visible
25 Jan -3.1 01:10:28 10° W 01:13:46 48° NNW 01:14:51 33° NNE visible
26 Jan -3.6 00:22:49 10° WSW 00:26:12 70° NNW 00:29:20 12° NE visible
26 Jan -1.5 02:00:32 10° WNW 02:02:18 21° NW 02:02:18 21° NW visible
27 Jan -2.3 01:12:43 10° WNW 01:15:44 29° NNW 01:16:45 24° NNE visible
28 Jan -2.6 00:24:54 10° W 00:28:04 36° NNW 00:31:11 10° NE visible
28 Jan -1.3 02:02:44 10° NW 02:04:08 18° NW 02:04:08 18° NW visible
29 Jan -2.1 01:14:59 10° WNW 01:17:47 23° N 01:18:32 21° NNE visible
30 Jan -2.2 00:27:09 10° WNW 00:30:03 25° N 00:32:56 10° NE visible
30 Jan -1.3 02:04:37 10° NW 02:05:54 18° NNW 02:05:54 18° NNW visible
31 Jan -2.3 01:16:59 10° NW 01:19:50 24° N 01:20:18 23° NNE visible
01 Feb -2.1 00:29:16 10° NW 00:32:03 23° N 00:34:44 11° NE visible
01 Feb -1.5 02:06:15 10° NW 02:07:41 22° NW 02:07:41 22° NW visible
02 Feb -2.7 01:18:41 10° NW 01:21:46 31° NNE 01:22:09 30° NNE visible
